Temp_Advection
nan nan nan nan nan nan nan nan nan nan nan nan nan nan nan nan nan nan nan nan nan nan
nan 0 0 0 0 0 0 0 0 0 0 0 0 0 -0 0 0 0 -0 0 0 nan
nan 0 0 0 0 0 0 0 0 0 0 0 0 0 1 1 1 0 0 0 0 nan
nan 0 0 0 0 0 0 0 1 1 1 1 1 1 1 1 1 0 0 0 0 nan
nan 0 0 0 0 0 0 1 1 1 1 1 1 1 1 0 0 0 0 0 0 nan
nan 0 0 0 0 0 0 1 1 1 1 1 0 0 0 0 0 0 0 0 0 nan
nan -0 0 0 0 0 0 0 1 1 1 0 0 0 0 0 0 0 0 0 0 nan
nan 0 0 0 0 0 0 0 0 0 0 0 0 0 0 0 0 0 0 0 0 nan
nan 0 0 0 0 0 0 0 0 0 0 0 0 0 0 0 0 0 0 -0 -0 nan
nan -0 0 1 0 0 0 0 0 0 0 0 0 0 0 0 0 0 0 0 0 nan
nan 0 0 0 0 0 0 0 0 0 0 0 0 0 0 0 0 0 0 1 0 nan
nan -0 0 1 1 0 0 0 0 0 0 0 0 0 0 -0 0 1 1 1 0 nan
nan -0 -0 0 0 0 0 0 0 0 0 0 0 0 0 0 -0 1 1 1 0 nan
nan nan nan nan nan nan nan nan nan nan nan nan nan nan nan nan nan nan nan nan nan nan
Wind_Speed
18 20 20 19 18 19 19 20 19 21 21 20 17 16 17 17 20 19 16 17 18 19
15 17 18 17 18 19 19 19 19 19 19 21 20 22 22 22 21 18 17 18 18 19
11 13 13 14 16 17 18 19 20 21 21 22 23 24 24 24 23 20 20 19 19 20
12 14 14 14 14 14 15 17 19 21 23 25 26 26 25 24 22 21 19 18 18 18
11 13 15 15 15 16 15 16 18 20 23 24 25 24 23 21 20 19 18 18 17 17
11 12 13 14 15 16 16 17 17 19 20 22 22 21 21 20 18 17 17 15 15 17
13 13 14 15 15 15 15 16 17 17 19 20 19 20 19 17 16 16 16 15 15 16
15 16 15 15 15 14 15 16 18 19 20 20 20 20 19 18 18 17 16 15 14 15
16 18 17 17 17 17 18 18 19 20 20 20 20 19 18 17 16 15 14 14 14 15
16 17 19 20 20 19 20 20 21 20 20 20 20 18 17 17 15 15 16 16 15 15
17 17 20 22 22 22 22 22 21 21 21 20 19 19 18 17 17 17 18 16 15 14
16 16 18 23 24 24 23 21 21 22 21 21 21 20 20 19 19 19 17 17 15 14
18 18 18 21 25 23 22 23 23 22 23 23 22 22 21 20 21 20 19 17 16 15
19 18 18 19 24 25 24 24 25 25 25 24 24 24 23 22 21 21 19 17 15 15
Wind_Direction
219 229 233 236 243 246 247 249 246 240 237 230 230 210 205 207 213 227 238 244 249 253
227 231 236 241 245 248 248 250 247 241 231 227 224 220 220 222 226 235 241 246 254 260
242 246 250 250 245 243 243 242 240 237 229 227 226 223 224 225 228 229 237 243 251 257
256 253 250 250 252 247 243 239 235 232 229 226 223 222 223 223 224 230 240 249 252 256
276 268 260 255 252 250 245 240 232 227 224 222 222 222 223 225 231 242 247 250 254 261
285 273 265 259 255 251 245 238 231 224 222 221 219 219 224 231 236 240 247 253 261 267
291 282 270 263 256 252 246 239 233 227 222 222 225 229 232 236 240 243 248 254 262 271
287 281 273 265 257 250 244 240 235 231 231 232 232 232 232 235 237 241 247 254 262 273
290 273 269 264 258 255 251 245 240 237 236 236 236 235 236 241 243 248 255 263 274 280
293 278 259 255 253 254 255 253 248 244 239 238 237 239 241 245 247 250 256 261 265 274
307 287 261 250 247 247 250 248 245 242 241 243 245 246 248 250 253 253 255 257 262 271
304 290 271 249 245 246 246 242 240 240 241 243 243 245 248 254 256 256 252 253 258 268
299 299 282 260 247 246 246 244 241 241 242 244 245 248 252 255 258 258 251 252 256 264
299 298 293 274 252 245 242 242 242 241 241 243 245 248 254 260 257 253 252 254 259 262
Height
1490 1493 1493 1493 1493 1494 1496 1498 1498 1502 1503 1505 1506 1507 1509 1512 1513 1513 1515 1515 1516 1518
1487 1489 1489 1487 1488 1490 1491 1492 1493 1496 1497 1499 1501 1503 1504 1506 1508 1509 1511 1512 1513 1513
1484 1484 1483 1483 1485 1486 1487 1487 1488 1490 1492 1494 1496 1498 1500 1501 1503 1504 1505 1506 1507 1510
1479 1479 1479 1480 1480 1482 1482 1483 1484 1484 1487 1489 1491 1493 1494 1496 1498 1499 1500 1500 1502 1503
1476 1475 1475 1475 1475 1477 1478 1479 1480 1480 1482 1484 1486 1487 1488 1490 1493 1494 1494 1495 1496 1496
1472 1471 1471 1472 1472 1473 1474 1476 1475 1475 1477 1480 1481 1483 1485 1486 1487 1488 1489 1488 1490 1491
1468 1467 1467 1468 1469 1470 1471 1472 1472 1472 1475 1476 1477 1478 1480 1481 1482 1483 1485 1483 1483 1484
1464 1463 1464 1465 1465 1466 1468 1469 1470 1471 1472 1473 1473 1475 1475 1476 1478 1478 1479 1478 1477 1479
1461 1461 1460 1461 1462 1463 1465 1466 1468 1467 1467 1468 1470 1471 1470 1472 1473 1474 1474 1475 1472 1473
1458 1458 1458 1459 1459 1459 1460 1460 1461 1462 1462 1464 1465 1465 1466 1469 1468 1468 1470 1469 1469 1469
1455 1455 1454 1454 1454 1454 1455 1457 1457 1459 1459 1459 1459 1461 1463 1464 1463 1464 1465 1464 1464 1463
1452 1451 1448 1449 1449 1450 1450 1450 1451 1453 1454 1454 1456 1457 1457 1459 1459 1459 1458 1460 1460 1458
1447 1445 1443 1442 1441 1442 1444 1444 1445 1446 1448 1450 1450 1451 1451 1454 1453 1452 1455 1456 1455 1454
1442 1439 1437 1436 1435 1436 1436 1438 1440 1440 1441 1442 1443 1444 1445 1447 1447 1448 1449 1450 1450 1449